Fort Belvoir, VA

2:03 AM EST on December 12, 2019 (GMT -0500)
Davison Army Air Field

Weather History for KDAA - November, 2019

Change the Weather History Date:

Tuesday, November 19, 2019

  Actual Average Record
Temperature  
Mean Temperature 48 °F -  
Max Temperature 55 °F 55 °F 71 °F (2001)
Min Temperature 42 °F 33 °F 14 °F (2014)
Degree Days  
Heating Degree Days 16    
Moisture  
Dew Point 41 °F    
Average Humidity 87    
Maximum Humidity 93    
Minimum Humidity 47    
Precipitation  
Precipitation 0.02 in - - ()
Sea Level Pressure  
Sea Level Pressure 29.81 in    
Wind  
Wind Speed 1 mph ()    
Max Wind Speed 10 mph    
Max Gust Speed -    
Visibility 6.0 miles    
Events Rain    
Averages and records for this station are not official NWS values.
T = Trace of Precipitation, MM = Missing Value Source: Averaged Metar Reports

Daily Weather History Graph

Daily Weather History Graph

Search for Another Location

Airport or City:

Astronomy

Nov. 19, 2019 Rise Set
Actual Time 6:55 AM EST 4:52 PM EST
Civil Twilight 6:26 AM EST 5:21 PM EST
Nautical Twilight 5:54 AM EST 5:53 PM EST
Astronomical Twilight 5:22 AM EST 6:25 PM EST
Moon 11:45 PM EST (11/19) 1:04 PM EST (11/19)
Length of Visible Light 10h 54m
Length of Day
9h 57m
Waning Gibbous, 52% of the Moon is Illuminated
Nov 19
Waning Gibbous
Nov 19
Last Quarter
Nov 26
New
Dec 4
First Quarter
Dec 12
Full

Hourly Weather History & Observations

Time (EST) Temp. Windchill Dew Point Humidity Pressure Visibility Wind Dir Wind Speed Gust Speed Precip Events Conditions
12:01 AM 42.8 °F - 41.0 °F 93% 29.79 in 3.0 mi Calm Calm - N/A Rain Light Rain
12:04 AM 42.8 °F - 41.0 °F 93% 29.79 in 4.0 mi Calm Calm - N/A Rain Light Rain
12:29 AM 42.8 °F - 41.0 °F 93% 29.78 in 2.0 mi Calm Calm - N/A Rain Light Rain
12:30 AM 42.8 °F - 41.0 °F 93% 29.78 in 1.9 mi Calm Calm - N/A   Overcast
12:35 AM 42.8 °F - 41.0 °F 93% 29.78 in 1.4 mi Calm Calm - N/A   Overcast
12:40 AM 42.8 °F - 41.0 °F 93% 29.78 in 2.2 mi Calm Calm - N/A   Overcast
12:45 AM 42.8 °F - 41.0 °F 93% 29.78 in 3.0 mi Calm Calm - N/A   Overcast
12:56 AM 42.8 °F - 41.0 °F 93% 29.78 in 4.0 mi Calm Calm - 0.01 in   Overcast
12:57 AM 42.8 °F - 41.0 °F 93% 29.78 in 4.0 mi Calm Calm - N/A   Light Drizzle
1:27 AM 42.8 °F 41.1 °F 41.0 °F 93% 29.78 in 2.0 mi SE 3.5 mph - N/A Rain Light Rain
1:28 AM 42.8 °F 41.1 °F 41.0 °F 93% 29.78 in 1.9 mi SE 3.5 mph - N/A   Overcast
1:38 AM 42.8 °F - 41.0 °F 93% 29.78 in 2.5 mi Calm Calm - N/A   Overcast
1:53 AM 42.8 °F 41.1 °F 41.0 °F 93% 29.78 in 3.0 mi ESE 3.5 mph - N/A   Overcast
1:56 AM 42.6 °F 40.9 °F 40.8 °F 93% 29.78 in 4.0 mi SE 3.5 mph - 0.01 in   Overcast
2:04 AM 42.8 °F - 41.0 °F 93% 29.78 in 4.0 mi Calm Calm - N/A   Overcast
2:34 AM 42.8 °F 41.1 °F 41.0 °F 93% 29.79 in 5.0 mi WNW 3.5 mph - N/A   Overcast
2:56 AM 43.7 °F - 41.7 °F 93% 29.78 in 4.0 mi Calm Calm - N/A   Overcast
3:16 AM 44.6 °F - 41.0 °F 87% 29.78 in 4.0 mi Calm Calm - N/A   Overcast
3:26 AM 42.8 °F - 41.0 °F 93% 29.78 in 2.0 mi Calm Calm - N/A   Overcast
3:31 AM 42.8 °F - 41.0 °F 93% 29.78 in 1.9 mi Calm Calm - N/A   Overcast
3:46 AM 42.8 °F - 41.0 °F 93% 29.78 in 0.8 mi Calm Calm - N/A   Overcast
3:51 AM 42.8 °F - 41.0 °F 93% 29.78 in 1.0 mi Calm Calm - N/A   Overcast
3:56 AM 42.4 °F - 40.6 °F 93% 29.78 in 1.2 mi Calm Calm - N/A   Overcast
4:03 AM 42.8 °F 41.1 °F 41.0 °F 93% 29.78 in 3.0 mi SSE 3.5 mph - N/A   Overcast
4:23 AM 42.8 °F - 41.0 °F 93% 29.78 in 5.0 mi Calm Calm - N/A   Overcast
4:56 AM 43.5 °F - 41.5 °F 93% 29.80 in 5.0 mi Calm Calm - N/A   Overcast
5:56 AM 44.1 °F - 41.9 °F 92% 29.81 in 8.0 mi Calm Calm - N/A   Overcast
6:56 AM 44.1 °F 42.5 °F 41.9 °F 92% 29.83 in 7.0 mi WSW 3.5 mph - N/A   Overcast
7:41 AM 42.8 °F 41.1 °F 41.0 °F 93% 29.84 in 10.0 mi WSW 3.5 mph - N/A   Overcast
8:11 AM 44.6 °F - 41.0 °F 87% 29.85 in 9.0 mi Calm Calm - N/A   Overcast
8:21 AM 44.6 °F 43.1 °F 41.0 °F 87% 29.86 in 8.0 mi SSW 3.5 mph - N/A   Overcast
8:56 AM 45.1 °F - 41.2 °F 86% 29.86 in 10.0 mi Calm Calm - N/A   Overcast
9:46 AM 46.4 °F 45.2 °F 42.8 °F 87% 29.86 in 10.0 mi South 3.5 mph - N/A   Overcast
9:56 AM 47.5 °F - 42.3 °F 82% 29.86 in 10.0 mi SW 3.5 mph - N/A   Overcast
10:11 AM 48.2 °F - 42.8 °F 82% 29.86 in 10.0 mi WSW 4.6 mph - N/A   Mostly Cloudy
10:56 AM 47.8 °F - 42.6 °F 82% 29.86 in 10.0 mi South 4.6 mph - N/A   Scattered Clouds
11:56 AM 50.4 °F - 43.2 °F 76% 29.85 in 10.0 mi SW 4.6 mph - N/A   Clear
12:56 PM 53.6 °F - 42.4 °F 66% 29.83 in 10.0 mi SSW 4.6 mph - N/A   Scattered Clouds
1:56 PM 55.4 °F - 35.6 °F 47% 29.82 in 10.0 mi WNW 8.1 mph - N/A   Partly Cloudy
2:56 PM 55.2 °F - 35.4 °F 47% 29.82 in 10.0 mi WNW 10.4 mph - N/A   Scattered Clouds
3:56 PM 53.4 °F - 37.6 °F 55% 29.83 in 10.0 mi WSW 3.5 mph - N/A   Mostly Cloudy
4:56 PM 50.4 °F - 41.0 °F 70% 29.84 in 10.0 mi South 4.6 mph - N/A   Scattered Clouds
5:56 PM 48.9 °F - 41.7 °F 76% 29.86 in 10.0 mi Calm Calm - N/A   Overcast
6:56 PM 47.7 °F - 42.8 °F 83% 29.87 in 10.0 mi Calm Calm - N/A   Overcast
7:56 PM 46.9 °F - 42.6 °F 85% 29.87 in 10.0 mi Calm Calm - N/A   Overcast
8:56 PM 45.9 °F - 42.4 °F 88% 29.88 in 10.0 mi Calm Calm - N/A   Overcast
9:56 PM 45.1 °F - 42.4 °F 90% 29.89 in 10.0 mi Calm Calm - N/A   Overcast
10:56 PM 45.1 °F - 42.6 °F 91% 29.89 in 10.0 mi Calm Calm - N/A   Mostly Cloudy